User: anonymous   Login
Location: Newark
(18.8198°N, 82.1672°E)
Time: 17:38:58
(UTC+00:00)
Language:

VELOX 1 - Orbit

View from above orbital plane
View from above orbital plane
View from above satellite
View from above satellite

Ground track
Ground track

The orbit data is extracted from the following two-line orbital elements,

1 40057U 14034E   19296.30158522  .00000264  00000-0  44409-4 0  9998
2 40057  98.2514  62.2352 0010748 182.3852 177.7307 14.77728885286461
Epoch (UTC): 23 October 2019 07:14:16
Eccentricity: 0.0010748
inclination: 98.2514°
perigee height: 629 km
apogee height: 644 km
right ascension of ascending node: 62.2352°
argument of perigee: 182.3852°
revolutions per day: 14.77728885
mean anomaly at epoch: 177.7307°
orbit number at epoch: 28646

The dashed part of the orbit path shows where the satellite is in the earth's shadow,  

DLR